Weather History for McAllen, TX

Change the Weather History Date:

Friday, February 15, 2013

  Actual Average Record
Temperature  
Mean Temperature 65 °F 65 °F  
Max Temperature 80 °F 75 °F 91 °F (1962)
Min Temperature 50 °F 54 °F 35 °F (1883)
Degree Days  
Heating Degree Days 0 4  
Month to date heating degree days 6 69  
Since 1 July heating degree days 275 496  
Cooling Degree Days 0 3  
Month to date cooling degree days 98 43  
Year to date cooling degree days 186 105  
Growing Degree Days 16 (Base 50)    
Moisture  
Dew Point 45 °F    
Average Humidity 53    
Maximum Humidity 83    
Minimum Humidity 23    
Precipitation  
Precipitation 0.00 in 0.04 in 1.52 in (1998)
Month to date precipitation 0.01 0.65  
Year to date precipitation 0.99 1.70  
Sea Level Pressure  
Sea Level Pressure 30.12 in    
Wind  
Wind Speed 7 mph (ENE)    
Max Wind Speed 21 mph    
Max Gust Speed 28 mph    
Visibility 10 miles    
Events      
T = Trace of Precipitation, MM = Missing Value Source: NWS Daily Summary

Daily Weather History Graph

Daily Weather History Graph

Search for Another Location

Airport:

Trip Planner

Search our weather history database for the weather conditions in past years. The results will help you decide how hot, cold, wet, or windy it might be!

Date:

Astronomy

Feb. 15, 2013 Rise Set
Actual Time 7:08 AM CST 6:26 PM CST
Civil Twilight 6:44 AM CST 6:49 PM CST
Nautical Twilight 6:17 AM CST 7:16 PM CST
Astronomical Twilight 5:50 AM CST 7:43 PM CST
Moon 10:23 AM CST (2/15) 11:47 PM CST (2/15)
Length of Visible Light 12h 05m
Length of Day
11h 17m
Waxing Crescent, 30% of the Moon is Illuminated
Feb 15
Waxing Crescent
Feb 17
First Quarter
Feb 25
Full
Mar 4
Last Quarter
Mar 11
New

Hourly Weather History & Observations

Time (CST) Temp. Dew Point Humidity Pressure Visibility Wind Dir Wind Speed Gust Speed Precip Events Conditions
12:53 AM 52.0 °F 43.0 °F 71% 30.05 in 10.0 mi ESE 3.5 mph - N/A   Clear
1:53 AM 51.1 °F 43.0 °F 74% 30.05 in 10.0 mi ESE 3.5 mph - N/A   Clear
2:53 AM 51.1 °F 43.0 °F 74% 30.05 in 10.0 mi ESE 3.5 mph - N/A   Clear
3:53 AM 51.1 °F 44.1 °F 77% 30.05 in 10.0 mi Calm Calm - N/A   Clear
4:53 AM 54.0 °F 48.0 °F 80% 30.04 in 10.0 mi East 5.8 mph - N/A   Clear
5:53 AM 54.0 °F 48.0 °F 80% 30.07 in 10.0 mi ENE 4.6 mph - N/A   Clear
6:53 AM 53.1 °F 48.0 °F 83% 30.09 in 10.0 mi NE 6.9 mph - N/A   Clear
7:53 AM 55.0 °F 48.0 °F 77% 30.12 in 10.0 mi NE 5.8 mph - N/A   Clear
8:53 AM 61.0 °F 48.9 °F 64% 30.13 in 10.0 mi ENE 8.1 mph - N/A   Clear
9:53 AM 66.9 °F 51.1 °F 57% 30.14 in 10.0 mi East 10.4 mph - N/A   Clear
10:53 AM 71.1 °F 46.9 °F 42% 30.16 in 10.0 mi ESE 4.6 mph - N/A   Clear
11:53 AM 73.9 °F 44.1 °F 34% 30.14 in 10.0 mi East 6.9 mph - N/A   Clear
12:53 PM 75.9 °F 42.1 °F 30% 30.10 in 10.0 mi East 8.1 mph - N/A   Clear
1:53 PM 79.0 °F 43.0 °F 28% 30.07 in 10.0 mi NE 8.1 mph - N/A   Clear
2:53 PM 78.1 °F 39.0 °F 25% 30.06 in 10.0 mi Calm Calm - N/A   Clear
3:53 PM 80.1 °F 39.0 °F 23% 30.06 in 10.0 mi NE 8.1 mph 16.1 mph N/A   Partly Cloudy
4:53 PM 73.0 °F 44.1 °F 35% 30.07 in 10.0 mi ENE 13.8 mph 21.9 mph N/A   Clear
5:53 PM 69.1 °F 46.0 °F 44% 30.10 in 10.0 mi ENE 13.8 mph - N/A   Clear
6:53 PM 66.9 °F 45.0 °F 45% 30.12 in 10.0 mi East 8.1 mph - N/A   Clear
7:53 PM 64.9 °F 46.9 °F 52% 30.18 in 10.0 mi ESE 6.9 mph - N/A   Mostly Cloudy
8:53 PM 64.0 °F 48.0 °F 56% 30.21 in 10.0 mi East 6.9 mph - N/A   Mostly Cloudy
9:53 PM 62.1 °F 46.9 °F 58% 30.23 in 10.0 mi NE 4.6 mph - N/A   Clear
10:53 PM 61.0 °F 48.0 °F 62% 30.24 in 10.0 mi NNE 8.1 mph - N/A   Mostly Cloudy
11:53 PM 62.1 °F 46.9 °F 58% 30.26 in 10.0 mi NNE 8.1 mph - N/A   Overcast